Location: Unspecified
(0.0000°N, 0.0000°E)
Time: 22:20:16
(UTC+00:00)

SR - Visible Passes

Search period start: 01 October 2014 00:00
Search period end: 11 October 2014 00:00
Orbit: 575 x 890 km, 66.7° (Epoch: 01 October)

Date Brightness Start Highest point End Pass type
(mag) Time Alt. Az. Time Alt. Az. Time Alt. Az.
01 Oct ? 04:51:52 10° NE 04:53:51 12° ENE 04:55:47 10° E visible
01 Oct ? 18:58:31 10° WSW 19:01:42 16° WNW 19:05:00 10° NNW visible
02 Oct ? 18:08:31 10° SW 18:13:21 37° WNW 18:18:33 10° N visible
03 Oct ? 04:55:03 10° N 04:59:28 33° ENE 05:03:33 10° SE visible
04 Oct ? 04:09:03 10° NE 04:11:07 13° ENE 04:13:07 10° E visible
04 Oct ? 18:15:51 10° WSW 18:18:58 16° WNW 18:22:13 10° NNW visible
05 Oct ? 05:00:04 10° NNW 05:04:57 87° WSW 05:09:26 10° SSE visible
06 Oct ? 04:12:18 10° N 04:16:42 33° ENE 04:20:47 10° SE visible
07 Oct ? 03:26:14 10° NE 03:28:22 13° ENE 03:30:26 10° E visible
07 Oct ? 05:06:10 10° NW 05:10:20 29° WSW 05:14:13 10° S visible
08 Oct ? 04:20:10 35° NNW 04:22:11 84° WSW 04:26:38 10° SSE visible
09 Oct ? 03:34:54 31° E 03:34:54 31° E 03:38:01 10° SE visible
09 Oct ? 05:15:04 10° W 05:15:40 10° WSW 05:16:17 10° WSW visible
10 Oct ? 04:28:56 24° SW 04:28:56 24° SW 04:31:22 10° SSW visible
